Regional Weather Roundup
Issued by NWS

Home | Current Version | Previous Version | Text Only | Print | Product List | Glossary Off
Versions: 1 2 3 4 5 6 7 8 9 10 11 12 13 14 15 16 17 18 19 20 21 22 23 24 25 26 27 28 29 30 31 32 33 34 35 36 37 38 39 40 41 42 43 44 45 46 47 48 49 50

000
ASUS45 KABQ 292001
RWRNM
NEW MEXICO REGIONAL WEATHER ROUNDUP
NATIONAL WEATHER SERVICE ALBUQUERQUE NM
200 PM MDT FRI MAY 29 2015

NOTE: "FAIR" MEANS FEW OR NO CLOUDS BELOW 12,000 FEET AGL WITH NO
       SIGNIFICANT WEATHER OR OBSTRUCTIONS TO VISION.

      THIS PRODUCT IS RELEASED AS TWO VERSIONS.  ONE VERSION NEAR
      THE TOP OF THE HOUR CONTAINING PRELIMINARY DATA FROM ALBUQUERQUE
      AND OTHER STATIONS.  A FINAL VERSION WITH ADDITIONAL DATA IS
      ISSUED ABOUT 10 MINUTES AFTER THE HOUR.

NMZ501-503-504-510>518-292100-
NORTHWEST PLATEAU/NORTHCENTRAL MOUNTAINS

CITY           SKY/WX    TMP DP  RH WIND       PRES   REMARKS
FARMINGTON     SUNNY     75  25  15 W17G28    30.17F
SANTA FE       PTSUNNY   73  30  20 VRB3G18   30.17F
TAOS           MOSUNNY   68  30  24 CALM      30.22F

$$
NMZ402-403-502-505>509-292100-
WESTCENTRAL MOUNTAINS/SOUTHWEST MOUNTAINS

CITY           SKY/WX    TMP DP  RH WIND       PRES   REMARKS
GALLUP         PTSUNNY   74  29  19 N8G18     30.23S
GRANTS         LGT RAIN  74  27  17 N5        30.23F
SILVER CITY      N/A     82  19   9 NW7G23    30.15F

$$
NMZ407-409-411-412-292100-
SOUTHERN DESERTS

CITY           SKY/WX    TMP DP  RH WIND       PRES   REMARKS
LORDSBURG      FAIR      90  21   8 W17G23    30.06F
DEMING         SUNNY     90  18   7 W9G24     30.05F
HOLLOMAN AFB   SUNNY     91  20   7 NW3G23    30.01F
ALAMOGORDO     SUNNY     91  18   6 W13       30.03F
T OR C         PTSUNNY   86  25  11 VRB6      30.06F

$$
NMZ519>523-292100-
CENTRAL VALLEYS/CENTRAL HIGHLANDS

CITY           SKY/WX    TMP DP  RH WIND       PRES   REMARKS
ALBUQUERQUE    PTSUNNY   79  35  20 CALM      30.15F
DOUBLE EAGLE   PTSUNNY   79  37  22 CALM      30.18F
MORIARTY ARPT  FAIR      78  27  15 NW15G25   30.20S
CLINES CORNERS PTSUNNY   73  31  21 W20       30.21F
BELEN          FAIR      78  29  16 NW9       30.14S
SOCORRO        NOT AVBL

$$
NMZ524>526-539-540-292100-
SOUTHCENTRAL MOUNTAINS

CITY           SKY/WX    TMP DP  RH WIND       PRES   REMARKS
RUIDOSO        NOT AVBL

$$
NMZ527>531-292100-
NORTHEAST HIGHLANDS/NORTHEAST PLAINS

CITY           SKY/WX    TMP DP  RH WIND       PRES   REMARKS
LAS VEGAS      LGT RAIN  69  32  25 NW21G32   30.17F
RATON          TSTM      61  46  57 N20G28    30.15R
CLAYTON        MOSUNNY   73  50  44 N10       30.13F

$$
NMZ532>537-292100-
EASTCENTRAL PLAINS

CITY           SKY/WX    TMP DP  RH WIND       PRES   REMARKS
TUCUMCARI      MOSUNNY   78  53  41 E7        30.06F
CANNON AFB     MOSUNNY   76  53  45 VRB3      30.07F
CLOVIS AIRPORT SUNNY     79  54  41 NE6       30.07F

$$
NMZ028-029-538-292100-
SOUTHEAST PLAINS

CITY           SKY/WX    TMP DP  RH WIND       PRES   REMARKS
ROSWELL        MOSUNNY   83  52  34 VRB5      30.01F
ARTESIA        SUNNY     84  52  32 VRB7      30.01F
CARLSBAD       SUNNY     86  53  32 CALM      29.98F
HOBBS          SUNNY     82  55  39 N5        30.03F


$$



USA.gov is the U.S. government's official web portal to all federal, state and local government web resources and services.